FENGYUN 1C DEB

Satellite information

Favourite Embed

Satellite Type and Status

DEBRISIN ORBIT

Key statistics

Satellite FENGYUN 1C DEB at a glance.

Uptime

9714

Days in orbit

Revolutions

≈ 14.0

Per day

Orbit

SSO

Sun Synchronous Orbit

Inclination

98.8

Latest

Satellite identification and parameters

Extended collection of information and parameters for FENGYUN 1C DEB.

Object identification

Identified? True

Debris? True

Object name: FENGYUN 1C DEB

International designator: 1999-025AEF

Object number (NORAD): 30416

Object ID (CCSDS): 30416

Country: PEOPLES REPUBLIC OF CHINA (PRC)

Current information (Y/N): Y

RCS size: SMALL

Orbital parameters

Period: 102.664 minutes

Inclination: 98.835 deg

SMA: 7262.844 km

Apoapsis: 924.997 km

Periapsis: 844.422 km

RAAN: 10.4411 deg

Eccentricy: 0.0055471

Argument of periapsis: 191.8888 deg

Mean anomaly: 168.0972 deg

Mean motion: 14.02628507 rev/day

Mean motion (dot): 0.0000077 rev/day2

B* drag term: 0.00051992 1/REarth

Two-line elements (TLE)

Creation date: Dec. 12, 2025, 7:26 a.m.

Reference frame: TEME

Reference center: EARTH

Epoch: Dec. 12, 2025, 12:13 a.m. UTC

TLE line 0: 0 FENGYUN 1C DEB

TLE line 1: 1 30416U 99025AEF 25346.00922167 .00000770 00000-0 51992-3 0 9999

TLE line 2: 2 30416 98.8350 10.4411 0055471 191.8888 168.0972 14.02628507966149

Live tracking on map

Real-time ground track for satellite FENGYUN 1C DEB.

In-orbit conjunctions

A list of the most updated potential collisions computed for object FENGYUN 1C DEB.

Target Orbit TCA Probability of collision Miss distance Type
FENGYUN 1C DEB SSO 2025-02-01 21:31:11 0.0001727779 214.0 (m) DEBRIS
COSMOS 2278 LEO 2024-09-05 16:41:29 0.00121877 919.0 (m) PAYLOAD

Associated space launch

Chinese polar orbiting meteorological satellite

FENGYUN 1C DEB was lifted into orbit during the mission ‘Long March 4B | Feng Yun 1C’, on board a Long March 4B space rocket.

The launch took place on May 10, 1999, 1:33 a.m. from Launch Complex 7.

For more information about the launch, click the button.

Launch to space Long March 4B | Feng Yun 1C
Long March 4B | Feng Yun 1C

Agency: N/A

Status: Launch Successful

Launch date: May 10, 1999, 1:33 a.m. UTC

Rocket: Long March 4B

Launch pad: Launch Complex 7

Location: Taiyuan Satellite Launch Center, People's Republic of China

...

Latest news about this satellite

There are no fresh news available about this satellite. Check back as we update our databases every day.


Newsletter sign-up

Weekly statistics, charts and insights to help you stay on top of the space industry.